GW1450 Weather Reports


time (UTC)temp
F
wind
direction
speed
knots
gust
knots
rain 1hr
in
rain 24hr
in
rain mn
in
humidity
%
barometer
mb
20260505223034 78 129 2.6 8.7 0.00 0.00 0.00 44 1012.7
20260505221533 78 164 0.9 7.8 0.00 0.00 0.00 44 1012.9
20260505220031 77 152 2.6 7.8 0.00 0.00 0.00 45 1013.0
20260505214606 77 340 1.7 7.0 0.00 0.00 0.00 46 1013.1
20260505213032 76 125 3.5 8.7 0.00 0.00 0.00 46 1013.2
20260505211530 77 137 3.5 7.8 0.00 0.00 0.00 46 1013.3
20260505210037 77 290 2.6 7.8 0.00 0.00 0.00 45 1013.5
20260505204530 76 92 1.7 7.0 0.00 0.00 0.00 46 1013.5
20260505203038 75 249 2.6 7.8 0.00 0.00 0.00 47 1013.7
20260505200036 74 192 2.6 7.0 0.00 0.00 0.00 49 1013.8
20260505194534 73 208 2.6 9.6 0.00 0.00 0.00 49 1013.9
20260505191536 72 157 3.5 8.7 0.00 0.00 0.00 51 1014.1
20260505190035 71 205 4.3 11.3 0.00 0.00 0.00 51 1014.1
20260505184534 70 173 3.5 9.6 0.00 0.00 0.00 52 1014.3
20260505181531 70 153 2.6 9.6 0.00 0.00 0.00 54 1014.3
20260505180131 69 182 3.5 9.6 0.00 0.00 0.00 55 1014.3
20260505171534 68 185 0.0 3.5 0.00 0.00 0.00 57 1014.3
20260505170037 66 108 0.9 3.5 0.00 0.00 0.00 59 1014.4
20260505164535 64 85 0.0 4.3 0.00 0.00 0.00 63 1014.4
20260505163030 63 70 1.7 5.2 0.00 0.00 0.00 64 1014.5
20260505161645 63 73 0.9 3.5 0.00 0.00 0.00 66 1014.5
20260505153107 60 178 3.5 5.2 0.00 0.00 0.00 73 1014.2
20260505151607 60 162 0.0 3.5 0.00 0.00 0.00 74 1014.1
20260505121534 50 202 0.0 0.0 0.00 0.00 0.00 91 1012.3
20260505120030 50 202 0.0 0.0 0.00 0.00 0.00 89 1012.2
20260505114534 51 202 0.0 2.6 0.00 0.00 0.00 89 1012.2
20260505113034 51 202 0.0 0.0 0.00 0.00 0.00 88 1012.0
20260505111533 52 202 0.0 1.7 0.00 0.00 0.00 88 1011.9
20260505101530 54 185 0.0 3.5 0.00 0.00 0.00 84 1011.5
20260505100038 53 180 0.0 1.7 0.00 0.00 0.00 85 1011.5
20260505094536 54 181 0.0 1.7 0.00 0.00 0.00 83 1011.4
20260505093036 55 204 0.0 1.7 0.00 0.00 0.00 81 1011.4
20260505091530 56 183 0.0 2.6 0.00 0.00 0.00 80 1011.2
20260505090031 56 180 0.0 2.6 0.00 0.00 0.00 79 1011.1
20260505083035 57 187 0.9 4.3 0.00 0.00 0.00 77 1011.2
20260505081536 57 202 0.0 1.7 0.00 0.00 0.00 78 1011.2
20260505080036 57 194 0.0 3.5 0.00 0.00 0.00 77 1011.2
20260505074538 58 186 0.0 3.5 0.00 0.00 0.00 75 1011.1
20260505073036 59 180 0.0 2.6 0.00 0.00 0.00 73 1011.1
20260505071651 59 180 0.0 2.6 0.00 0.00 0.00 70 1010.9
20260505070032 61 182 0.9 4.3 0.00 0.00 0.00 66 1010.7
20260505064533 63 157 0.0 2.6 0.00 0.00 0.00 61 1010.7
20260505063041 66 171 0.0 2.6 0.00 0.00 0.00 57 1010.6
20260505054534 69 245 2.6 10.4 0.00 0.00 0.00 51 1010.5
20260505051538 70 255 4.3 9.6 0.00 0.00 0.00 49 1010.2
20260505040049 72 253 3.5 7.8 0.00 0.00 0.00 44 1009.4
20260505033145 73 237 5.2 13.0 0.00 0.00 0.00 43 1009.0
20260505031536 73 247 5.2 11.3 0.00 0.00 0.00 43 1008.8
20260505030037 74 252 7.0 14.8 0.00 0.00 0.00 42 1008.6
20260505024531 75 246 7.8 13.9 0.00 0.00 0.00 41 1008.4
20260505023047 75 244 8.7 18.2 0.00 0.00 0.00 40 1008.4
20260505021535 76 238 8.7 18.2 0.00 0.00 0.00 38 1008.5
20260505020034 77 241 9.6 17.4 0.00 0.00 0.00 37 1008.4
20260505014531 78 244 8.7 14.8 0.00 0.00 0.00 35 1008.4
20260505013031 79 243 7.8 15.6 0.00 0.00 0.00 34 1008.4
20260505011536 80 245 7.8 14.8 0.00 0.00 0.00 33 1008.4
20260505010036 80 250 8.7 15.6 0.00 0.00 0.00 33 1008.4
20260505004535 81 244 8.7 15.6 0.00 0.00 0.00 32 1008.5
20260505003111 82 241 4.3 13.0 0.00 0.00 0.00 35 1008.4
20260505001536 82 236 3.5 9.6 0.00 0.00 0.00 35 1008.4
20260504234532 81 179 5.2 14.8 0.00 0.00 0.00 39 1008.3
20260504230032 82 165 4.3 8.7 0.00 0.00 0.00 38 1008.7
20260504224537 82 154 4.3 9.6 0.00 0.00 0.00 37 1008.9